Total_Precipitation_Accumulation
0.41 0.42 0.38 0.34 0.30 0.29 0.29 0.30 0.30 0.29 0.30 0.34 0.38 0.39 0.40 0.41 0.41 0.41 0.42 0.45 0.48 0.50 0.49 0.52 0.51 0.46 0.47 0.49 0.50 0.51 0.52 0.51 0.45 0.42 0.38 0.35 0.34 0.40 0.35 0.25 0.20 0.17 0.14
0.58 0.63 0.69 0.67 0.60 0.51 0.38 0.34 0.36 0.38 0.38 0.37 0.39 0.41 0.41 0.44 0.51 0.56 0.56 0.60 0.61 0.59 0.56 0.53 0.47 0.37 0.35 0.32 0.36 0.37 0.39 0.41 0.37 0.36 0.35 0.32 0.33 0.37 0.37 0.30 0.23 0.19 0.20
0.84 0.99 1.10 1.07 0.89 0.66 0.46 0.39 0.39 0.42 0.43 0.43 0.46 0.53 0.57 0.59 0.59 0.64 0.67 0.68 0.61 0.56 0.52 0.46 0.39 0.32 0.28 0.23 0.23 0.21 0.21 0.23 0.27 0.31 0.36 0.33 0.29 0.26 0.29 0.30 0.29 0.31 0.26
0.69 0.88 1.01 1.07 0.88 0.65 0.49 0.42 0.35 0.33 0.34 0.38 0.44 0.54 0.63 0.69 0.73 0.69 0.62 0.59 0.53 0.49 0.44 0.39 0.35 0.30 0.24 0.20 0.20 0.16 0.13 0.16 0.23 0.26 0.29 0.29 0.25 0.22 0.25 0.32 0.36 0.43 0.37
0.37 0.54 0.69 0.79 0.64 0.43 0.30 0.25 0.21 0.24 0.32 0.39 0.46 0.52 0.63 0.71 0.71 0.67 0.57 0.53 0.49 0.42 0.35 0.31 0.30 0.27 0.24 0.20 0.18 0.14 0.10 0.10 0.11 0.15 0.16 0.15 0.13 0.14 0.15 0.23 0.35 0.48 0.45
0.29 0.35 0.46 0.50 0.41 0.26 0.13 0.08 0.10 0.16 0.22 0.27 0.30 0.34 0.37 0.41 0.47 0.45 0.39 0.35 0.32 0.28 0.25 0.23 0.22 0.20 0.23 0.23 0.17 0.13 0.08 0.05 0.05 0.06 0.06 0.06 0.06 0.08 0.11 0.22 0.36 0.44 0.53
0.33 0.32 0.37 0.40 0.33 0.21 0.09 0.06 0.07 0.10 0.14 0.16 0.15 0.15 0.15 0.17 0.18 0.17 0.18 0.17 0.18 0.17 0.15 0.14 0.13 0.13 0.15 0.17 0.13 0.09 0.06 0.04 0.03 0.04 0.03 0.02 0.02 0.05 0.10 0.21 0.37 0.53 0.66
0.28 0.28 0.35 0.40 0.35 0.25 0.17 0.13 0.10 0.11 0.12 0.13 0.12 0.08 0.07 0.07 0.07 0.07 0.08 0.07 0.08 0.09 0.10 0.10 0.10 0.09 0.08 0.08 0.07 0.04 0.02 0.02 0.01 0.01 0.01 0.00 0.00 0.02 0.06 0.11 0.20 0.36 0.56
0.24 0.28 0.31 0.37 0.36 0.28 0.24 0.22 0.19 0.16 0.16 0.16 0.14 0.10 0.07 0.04 0.02 0.02 0.02 0.03 0.05 0.06 0.08 0.09 0.07 0.06 0.05 0.03 0.03 0.02 0.01 0.01 0.00 0.00 0.00 0.00 0.00 0.00 0.01 0.02 0.03 0.05 0.15
0.23 0.26 0.30 0.36 0.38 0.33 0.30 0.28 0.25 0.25 0.23 0.21 0.18 0.15 0.12 0.08 0.03 0.01 0.01 0.01 0.03 0.05 0.07 0.08 0.07 0.04 0.03 0.01 0.01 0.01 0.01 0.00 0.00 0.00 0.00 0.00 0.00 0.00 0.00 0.00 0.01 0.02 0.04
0.20 0.23 0.30 0.40 0.42 0.41 0.40 0.39 0.34 0.31 0.30 0.30 0.28 0.23 0.18 0.12 0.06 0.02 0.01 0.01 0.01 0.03 0.06 0.07 0.06 0.03 0.01 0.01 0.00 0.01 0.00 0.00 0.00 0.00 0.00 0.00 0.00 0.00 0.00 0.00 0.01 0.02 0.05
0.20 0.25 0.35 0.39 0.35 0.35 0.42 0.46 0.43 0.41 0.39 0.40 0.39 0.34 0.25 0.16 0.06 0.02 0.01 0.01 0.01 0.02 0.03 0.03 0.03 0.01 0.01 0.00 0.00 0.00 0.00 0.00 0.00 0.00 0.00 0.00 0.00 0.00 0.00 0.00 0.00 0.02 0.04
0.25 0.29 0.35 0.37 0.40 0.45 0.47 0.48 0.49 0.49 0.47 0.44 0.42 0.39 0.31 0.21 0.08 0.03 0.01 0.00 0.00 0.02 0.01 0.01 0.01 0.00 0.00 0.00 0.00 0.00 0.00 0.00 0.00 0.00 0.00 0.00 0.00 0.00 0.00 0.00 0.00 0.01 0.03
0.28 0.29 0.31 0.36 0.39 0.48 0.56 0.57 0.54 0.53 0.52 0.50 0.45 0.39 0.33 0.23 0.11 0.03 0.01 0.00 0.00 0.00 0.00 0.00 0.00 0.00 0.00 0.00 0.00 0.00 0.00 0.00 0.00 0.00 0.00 0.00 0.00 0.00 0.00 0.00 0.00 0.00 0.01
0.36 0.32 0.31 0.33 0.39 0.50 0.58 0.65 0.63 0.59 0.50 0.49 0.47 0.41 0.34 0.26 0.13 0.04 0.01 0.00 0.00 0.00 0.00 0.00 0.00 0.00 0.00 0.00 0.00 0.00 0.00 0.00 0.00 0.00 0.00 0.00 0.00 0.00 0.00 0.00 0.00 0.00 0.00
0.46 0.44 0.40 0.39 0.45 0.50 0.58 0.58 0.53 0.53 0.45 0.42 0.40 0.36 0.32 0.25 0.16 0.06 0.01 0.00 0.00 0.00 0.00 0.00 0.00 0.00 0.00 0.00 0.00 0.00 0.00 0.00 0.00 0.00 0.00 0.00 0.00 0.00 0.00 0.00 0.00 0.00 0.00
0.55 0.55 0.53 0.46 0.48 0.53 0.58 0.60 0.56 0.50 0.48 0.43 0.35 0.28 0.25 0.21 0.16 0.08 0.02 0.00 0.00 0.00 0.00 0.00 0.00 0.00 0.00 0.00 0.00 0.00 0.00 0.00 0.00 0.00 0.00 0.00 0.00 0.00 0.00 0.00 0.00 0.00 0.00
0.60 0.59 0.57 0.54 0.49 0.53 0.59 0.59 0.61 0.60 0.54 0.48 0.39 0.29 0.21 0.15 0.10 0.07 0.02 0.00 0.00 0.00 0.00 0.00 0.00 0.00 0.00 0.00 0.00 0.00 0.00 0.00 0.00 0.00 0.00 0.00 0.00 0.00 0.00 0.00 0.00 0.00 0.00
0.57 0.56 0.55 0.54 0.53 0.52 0.58 0.60 0.57 0.61 0.57 0.52 0.42 0.32 0.23 0.13 0.07 0.05 0.02 0.01 0.00 0.00 0.00 0.00 0.00 0.00 0.00 0.00 0.00 0.00 0.00 0.00 0.00 0.00 0.00 0.00 0.00 0.00 0.00 0.00 0.00 0.00 0.00
0.56 0.52 0.51 0.52 0.51 0.53 0.57 0.59 0.54 0.56 0.55 0.52 0.40 0.28 0.22 0.12 0.07 0.03 0.02 0.01 0.00 0.00 0.00 0.00 0.00 0.00 0.00 0.00 0.00 0.00 0.00 0.00 0.00 0.00 0.00 0.00 0.00 0.00 0.00 0.00 0.00 0.00 0.00
0.57 0.51 0.47 0.47 0.46 0.51 0.56 0.56 0.51 0.49 0.48 0.45 0.33 0.19 0.13 0.07 0.04 0.01 0.01 0.01 0.00 0.00 0.00 0.00 0.00 0.00 0.00 0.00 0.00 0.00 0.00 0.00 0.00 0.00 0.00 0.00 0.00 0.00 0.00 0.00 0.00 0.00 0.00
0.62 0.56 0.45 0.39 0.40 0.46 0.53 0.52 0.49 0.43 0.41 0.38 0.28 0.16 0.10 0.05 0.02 0.01 0.00 0.00 0.00 0.00 0.00 0.00 0.00 0.00 0.00 0.00 0.00 0.00 0.00 0.00 0.00 0.00 0.00 0.00 0.00 0.00 0.00 0.00 0.00 0.00 0.00
0.57 0.54 0.46 0.34 0.33 0.41 0.46 0.47 0.45 0.38 0.35 0.31 0.22 0.14 0.09 0.05 0.02 0.01 0.00 0.00 0.00 0.00 0.00 0.00 0.00 0.00 0.00 0.00 0.00 0.00 0.00 0.00 0.00 0.00 0.00 0.00 0.00 0.00 0.00 0.00 0.00 0.00 0.00
0.47 0.47 0.45 0.32 0.29 0.37 0.40 0.44 0.41 0.32 0.28 0.21 0.14 0.09 0.06 0.03 0.02 0.01 0.00 0.00 0.00 0.00 0.00 0.00 0.00 0.00 0.00 0.00 0.00 0.00 0.00 0.00 0.00 0.00 0.00 0.00 0.00 0.00 0.00 0.00 0.00 0.00 0.00
0.43 0.40 0.42 0.34 0.28 0.33 0.37 0.40 0.37 0.28 0.20 0.13 0.09 0.06 0.04 0.03 0.01 0.01 0.00 0.00 0.00 0.00 0.00 0.00 0.00 0.00 0.00 0.00 0.00 0.00 0.00 0.00 0.00 0.00 0.00 0.00 0.00 0.00 0.00 0.00 0.00 0.00 0.00
0.41 0.39 0.41 0.37 0.29 0.29 0.32 0.32 0.30 0.21 0.12 0.08 0.05 0.04 0.03 0.02 0.01 0.01 0.00 0.00 0.00 0.00 0.00 0.00 0.00 0.00 0.00 0.00 0.00 0.00 0.00 0.00 0.00 0.00 0.00 0.00 0.00 0.00 0.00 0.00 0.00 0.00 0.00